This demonstration page uses our WeatherBlox Daily Observations layout. Learn more.

Left ArrowRight Arrow

36.17497, -115.13722

Hourly Observations for April 15, 2016

Temp ( °F °C ) Dew Point ( °F °C ) Humidity (%) Winds ( mph kmh ) Pressure ( in mb ) Visibility ( mi km ) Precip ( " mm )
12:53 am 00:53 Clear 67 19.4 8 -13.3 10 10 NNW 21 33 29.68 1005 10 16.0934 0 0
1:53 am 01:53 Clear 67 19.4 8 -13.3 10 10 NNW 26 43 29.67 1005 10 16.0934 0 0
2:53 am 02:53 Clear 64 17.8 9 -12.8 11 11 NNW 24 39 29.68 1005 10 16.0934 0 0
3:53 am 03:53 Clear 62 16.7 10 -12.2 13 13 NNW 26 43 29.71 1006 10 16.0934 0 0
4:53 am 04:53 Clear 61 16.1 11 -11.7 14 14 NNW 23 37 29.72 1007 10 16.0934 0 0
5:53 am 05:53 Clear 60 15.6 13 -10.6 16 16 NNW 18 30 29.76 1008 10 16.0934 0 0
6:53 am 06:53 Sunny 59 15 18 -7.8 20 20 N 20 31 29.79 1009 10 16.0934 0 0
7:53 am 07:53 Sunny 59 15 21 -6.1 23 23 N 24 39 29.81 1010 10 16.0934 0 0
8:53 am 08:53 Sunny 60 15.6 19 -7.2 20 20 N 24 39 29.83 1010 10 16.0934 0 0
9:53 am 09:53 Sunny 62 16.7 19 -7.2 19 19 NNW 32 52 29.83 1010 10 16.0934 0 0
10:53 am 10:53 Sunny 64 17.8 20 -6.7 18 18 NNW 26 43 29.83 1010 10 16.0934 0 0
11:53 am 11:53 Sunny 68 20 18 -7.8 15 15 NW 25 41 29.83 1010 10 16.0934 0 0
12:53 pm 12:53 Mostly Sunny 69 20.6 14 -10 12 12 N 23 37 29.82 1010 10 16.0934 0 0
1:09 pm 13:09 Partly Cloudy 65 18.3 23 -5 20 20 NNE 31 50 29.77 1008 10 16.0934 0 0
1:53 pm 13:53 Sunny 67 19.4 14 -10 13 13 N 21 33 29.84 1010 10 16.0934 0 0
2:53 pm 14:53 Mostly Sunny 67 19.4 17 -8.3 15 15 NNE 23 37 29.85 1011 10 16.0934 0 0
3:53 pm 15:53 Sunny 66 18.9 18 -7.8 16 16 NNW 23 37 29.87 1011 10 16.0934 0 0
4:15 pm 16:15 Mostly Sunny 67 19.4 15 -9.4 13 13 NNE 21 33 29.77 1008 10 16.0934 0 0
4:53 pm 16:53 Mostly Sunny 66 18.9 13 -10.6 13 13 NNE 24 39 29.87 1012 10 16.0934 0 0
5:53 pm 17:53 Sunny 65 18.3 21 -6.1 19 19 ENE 25 41 29.91 1013 10 16.0934 0 0
6:53 pm 18:53 Sunny 65 18.3 13 -10.6 13 13 N 15 24 29.92 1013 10 16.0934 0 0
7:53 pm 19:53 Mostly Clear 64 17.8 14 -10 14 14 N 18 30 29.94 1014 10 16.0934 0 0
8:53 pm 20:53 Clear 63 17.2 13 -10.6 14 14 N 15 24 29.97 1015 10 16.0934 0 0
9:53 pm 21:53 Clear 62 16.7 15 -9.4 16 16 N 12 19 29.98 1015 10 16.0934 0 0
10:53 pm 22:53 Clear 61 16.1 17 -8.3 18 18 NNW 18 30 29.99 1016 10 16.0934 0 0
11:53 pm 23:53 Clear 60 15.6 19 -7.2 20 20 N 16 26 30.01 1016 10 16.0934 0 0

Powered by AerisWeather